Regional Weather Roundup
Issued by NWS

Home | Current Version | Previous Version | Graphics & Text | Print | Product List | Glossary On
Versions: 1 2 3 4 5 6 7 8 9 10 11 12 13 14 15 16 17 18 19 20 21 22 23 24 25 26 27 28 29 30 31 32 33 34 35 36 37 38 39 40 41 42 43 44 45 46 47 48 49 50
000
ASUS43 KLMK 262310
RWRKY
KENTUCKY REGIONAL WEATHER ROUNDUP
NATIONAL WEATHER SERVICE LOUISVILLE KY
700 PM EDT THU MAR 26 2015

NOTE "FAIR" INDICATES FEW OR NO CLOUDS BELOW 12,000 FEET
WITH NO SIGNIFICANT WEATHER AND/OR OBSTRUCTIONS TO VISIBILITY.

KYZ001>023-026-027-061>063-070>075-270000-
WESTERN AND SOUTH CENTRAL KENTUCKY

CITY           SKY/WX    TMP DP  RH WIND       PRES   REMARKS
PADUCAH        MOSUNNY   44  35  70 N10       30.01S
HENDERSON      PTSUNNY   45  34  65 NW9       29.99S
OWENSBORO      CLOUDY    44  36  73 N10       29.99R
HOPKINSVILLE   DRIZZLE   43  39  86 N5        29.97R
BOWLING GREEN  CLOUDY    45  40  82 N6        29.96R
GLASGOW        DRIZZLE   44  39  81 N12       29.93R
$$

KYZ024-025-028>034-038-045-046-053-270000-
NORTH CENTRAL KENTUCKY

CITY           SKY/WX    TMP DP  RH WIND       PRES   REMARKS
LOUISVILLE/SDF CLOUDY    45  38  76 N8        29.93S
LOUISVILLE/LOU CLOUDY    45  37  73 N5        29.92F
FORT KNOX      CLOUDY    43  39  87 W6        29.92F
$$

KYZ035>037-039>044-047>052-055>060-089>105-270000-
NORTHEAST KENTUCKY

CITY           SKY/WX    TMP DP  RH WIND       PRES   REMARKS
LEXINGTON      LGT RAIN  43  39  86 N9G21     29.92R
COVINGTON      CLOUDY    42  34  73 NW5       29.92R
FRANKFORT      CLOUDY    44  40  85 NW12      29.91S
$$

KYZ054-064>069-076>088-106>120-270000-
SOUTHEAST KENTUCKY

CITY           SKY/WX    TMP DP  RH WIND       PRES   REMARKS
JACKSON        LGT RAIN  45  42  89 VRB5      29.87R
LONDON         CLOUDY    47  41  80 N12G18    29.88R HAZE
SOMERSET       LGT RAIN  43  41  93 N14G20    29.91R
MIDDLESBORO    HVY RAIN  51  49  93 N10       29.83R
MONTICELLO     CLOUDY    46  44  93 N10       29.93R FOG
$$



USA.gov is the U.S. government's official web portal to all federal, state and local government web resources and services.